Weather History for Andrews, TX

Change the Weather History Date:

Monday, November 19, 2012

  Actual Average (KMAF) Record (KMAF)
Temperature  
Mean Temperature 60 °F 51 °F  
Max Temperature 73 °F 65 °F 87 °F (1996)
Min Temperature 46 °F 38 °F 18 °F (1987)
Degree Days  
Heating Degree Days 6 14  
Month to date heating degree days 194  
Since 1 July heating degree days 303  
Growing Degree Days 10 (Base 50)    
Moisture  
Dew Point 42 °F    
Average Humidity 62    
Maximum Humidity 99    
Minimum Humidity 22    
Precipitation  
Precipitation 0.00 in 0.02 in 0.80 in (1994)
Month to date precipitation 0.46  
Year to date precipitation 13.77  
Snow  
Snow - - - ()
Month to date snowfall  
Since 1 July snowfall  
Since 1 September snowfall  
Snow Depth -    
Sea Level Pressure  
Sea Level Pressure 30.19 in    
Wind  
Wind Speed 6 mph ()    
Max Wind Speed 10 mph    
Max Gust Speed 17 mph    
Visibility 9.5 miles    
Events      
T = Trace of Precipitation, MM = Missing Value Source: Averaged Metar Reports

Daily Weather History Graph

Daily Weather History Graph

Search for Another Location

Airport:

Trip Planner

Search our weather history database for the weather conditions in past years. The results will help you decide how hot, cold, wet, or windy it might be!

Date:

Astronomy

Nov. 19, 2012 Rise Set
Actual Time 7:23 AM CST 5:47 PM CST
Civil Twilight 6:57 AM CST 6:13 PM CST
Nautical Twilight 6:27 AM CST 6:43 PM CST
Astronomical Twilight 5:58 AM CST 7:12 PM CST
Moon 12:35 PM CST (11/19) No Moon Set
Length of Visible Light 11h 16m
Length of Day
10h 24m
Waxing Crescent, 41% of the Moon is Illuminated
Nov 19
Waxing Crescent
Nov 20
First Quarter
Nov 28
Full
Dec 6
Last Quarter
Dec 13
New

Hourly Weather History & Observations

Time (CST) Temp. Windchill Dew Point Humidity Pressure Visibility Wind Dir Wind Speed Gust Speed Precip Events Conditions
12:15 AM 51.8 °F - 48.7 °F 89% 30.18 in 10.0 mi SSW 5.8 mph - N/A   Clear
12:35 AM 50.9 °F - 48.4 °F 91% 30.18 in 10.0 mi SSW 4.6 mph - N/A   Clear
12:55 AM 49.5 °F - 48.0 °F 95% 30.18 in 10.0 mi SSW 3.5 mph - N/A   Clear
1:15 AM 49.1 °F - 47.7 °F 95% 30.17 in 10.0 mi SW 4.6 mph - N/A   Clear
1:35 AM 48.6 °F - 47.3 °F 95% 30.17 in 10.0 mi SSW 3.5 mph - N/A   Clear
1:55 AM 48.0 °F - 47.1 °F 97% 30.16 in 10.0 mi SW 4.6 mph - N/A   Clear
2:15 AM 47.7 °F - 46.9 °F 97% 30.15 in 10.0 mi SW 5.8 mph - N/A   Clear
2:35 AM 48.2 °F - 47.5 °F 97% 30.16 in 7.0 mi SW 6.9 mph - N/A   Clear
2:55 AM 48.9 °F - 48.2 °F 97% 30.16 in 7.0 mi WSW 6.9 mph - N/A   Clear
3:15 AM 48.4 °F - 47.7 °F 97% 30.16 in 7.0 mi SW 8.1 mph - N/A   Clear
3:35 AM 48.6 °F - 48.2 °F 99% 30.15 in 7.0 mi SW 6.9 mph - N/A   Clear
3:55 AM 48.2 °F - 47.7 °F 98% 30.15 in 5.0 mi WSW 8.1 mph - N/A   Clear
4:15 AM 47.8 °F - 47.5 °F 99% 30.15 in 5.0 mi WSW 8.1 mph - N/A   Clear
4:35 AM 48.7 °F - 48.2 °F 98% 30.17 in 7.0 mi WSW 9.2 mph - N/A   Clear
4:55 AM 49.1 °F - 48.0 °F 96% 30.17 in 10.0 mi WSW 6.9 mph - N/A   Clear
5:15 AM 48.4 °F - 47.5 °F 97% 30.17 in 10.0 mi WSW 6.9 mph - N/A   Clear
5:35 AM 47.5 °F - 46.8 °F 97% 30.17 in 7.0 mi WSW 6.9 mph - N/A   Clear
5:55 AM 46.9 °F - 46.4 °F 98% 30.17 in 7.0 mi West 5.8 mph - N/A   Clear
6:15 AM 46.4 °F 44.3 °F 45.9 °F 98% 30.17 in 7.0 mi West 4.6 mph - N/A   Clear
6:35 AM 46.9 °F - 46.0 °F 97% 30.18 in 10.0 mi West 5.8 mph - N/A   Clear
6:55 AM 46.4 °F 43.5 °F 45.7 °F 97% 30.18 in 10.0 mi WSW 5.8 mph - N/A   Clear
7:35 AM 46.6 °F - 45.5 °F 96% 30.19 in 10.0 mi WSW 5.8 mph - N/A   Clear
7:55 AM 47.3 °F - 46.0 °F 95% 30.19 in 10.0 mi WSW 5.8 mph - N/A   Clear
8:15 AM 48.2 °F - 46.8 °F 95% 30.20 in 10.0 mi WSW 5.8 mph - N/A   Clear
8:35 AM 49.1 °F - 47.3 °F 93% 30.20 in 10.0 mi West 5.8 mph - N/A   Clear
8:55 AM 50.2 °F - 47.5 °F 90% 30.21 in 10.0 mi West 5.8 mph - N/A   Clear
9:15 AM 52.7 °F - 48.7 °F 86% 30.22 in 10.0 mi West 4.6 mph - N/A   Clear
9:35 AM 53.8 °F - 49.3 °F 85% 30.23 in 10.0 mi WNW 6.9 mph - N/A   Clear
9:55 AM 56.3 °F - 50.2 °F 80% 30.23 in 10.0 mi West 5.8 mph - N/A   Clear
10:15 AM 60.1 °F - 50.9 °F 72% 30.23 in 10.0 mi West 8.1 mph - N/A   Clear
10:35 AM 62.8 °F - 49.6 °F 62% 30.24 in 10.0 mi West 10.4 mph - N/A   Clear
10:55 AM 63.7 °F - 48.9 °F 59% 30.24 in 10.0 mi West 10.4 mph - N/A   Clear
11:15 AM 65.1 °F - 48.4 °F 55% 30.24 in 10.0 mi West 9.2 mph - N/A   Clear
11:35 AM 66.7 °F - 45.7 °F 47% 30.23 in 10.0 mi WNW 6.9 mph - N/A   Clear
11:55 AM 68.0 °F - 46.2 °F 46% 30.23 in 10.0 mi WNW 6.9 mph - N/A   Clear
12:15 PM 69.4 °F - 45.5 °F 42% 30.21 in 10.0 mi NW 8.1 mph - N/A   Clear
12:35 PM 70.0 °F - 45.5 °F 41% 30.21 in 10.0 mi WNW 10.4 mph - N/A   Clear
12:55 PM 70.5 °F - 43.5 °F 38% 30.20 in 10.0 mi NNW 8.1 mph - N/A   Clear
1:15 PM 71.8 °F - 40.1 °F 32% 30.19 in 10.0 mi NNW 6.9 mph 16.1 mph N/A   Clear
1:35 PM 72.1 °F - 39.9 °F 31% 30.18 in 10.0 mi NNW 9.2 mph - N/A   Clear
1:55 PM 72.3 °F - 39.7 °F 31% 30.18 in 10.0 mi NW 10.4 mph - N/A   Clear
2:15 PM 72.7 °F - 38.5 °F 29% 30.17 in 10.0 mi North 10.4 mph 17.3 mph N/A   Clear
2:35 PM 73.6 °F - 36.5 °F 26% 30.17 in 10.0 mi NW 5.8 mph - N/A   Clear
2:55 PM 72.0 °F - 35.6 °F 26% 30.16 in 10.0 mi NNW 10.4 mph - N/A   Clear
3:15 PM 72.5 °F - 36.0 °F 26% 30.15 in 10.0 mi West 5.8 mph - N/A   Clear
3:35 PM 73.6 °F - 34.5 °F 24% 30.16 in 10.0 mi WNW 4.6 mph - N/A   Clear
3:55 PM 73.4 °F - 34.9 °F 24% 30.15 in 10.0 mi NW 10.4 mph - N/A   Clear
4:15 PM 72.5 °F - 33.3 °F 24% 30.16 in 10.0 mi WNW 10.4 mph - N/A   Clear
4:35 PM 72.1 °F - 32.0 °F 23% 30.16 in 10.0 mi West 6.9 mph 16.1 mph N/A   Clear
4:55 PM 71.6 °F - 30.2 °F 22% 30.17 in 10.0 mi West 10.4 mph - N/A   Clear
5:15 PM 70.3 °F - 31.1 °F 23% 30.18 in 10.0 mi West 8.1 mph - N/A   Clear
5:35 PM 68.9 °F - 32.2 °F 26% 30.18 in 10.0 mi West 8.1 mph - N/A   Clear
5:55 PM 66.9 °F - 33.4 °F 29% 30.18 in 10.0 mi West 6.9 mph - N/A   Clear
6:15 PM 66.0 °F - 33.4 °F 30% 30.19 in 10.0 mi West 5.8 mph - N/A   Clear
6:35 PM 64.2 °F - 33.6 °F 32% 30.19 in 10.0 mi West 5.8 mph - N/A   Clear
6:55 PM 62.2 °F - 33.6 °F 34% 30.19 in 10.0 mi West 5.8 mph - N/A   Clear
7:15 PM 62.2 °F - 33.3 °F 34% 30.19 in 10.0 mi West 4.6 mph - N/A   Clear
7:35 PM 61.5 °F - 33.8 °F 35% 30.20 in 10.0 mi WNW 3.5 mph - N/A   Clear
7:55 PM 59.5 °F - 34.3 °F 39% 30.20 in 10.0 mi West 4.6 mph - N/A   Clear
8:15 PM 58.1 °F - 34.7 °F 41% 30.20 in 10.0 mi West 4.6 mph - N/A   Clear
8:35 PM 56.3 °F - 36.1 °F 47% 30.21 in 10.0 mi West 4.6 mph - N/A   Clear
8:55 PM 55.9 °F - 35.4 °F 46% 30.21 in 10.0 mi WSW 5.8 mph - N/A   Clear
9:15 PM 56.1 °F - 36.0 °F 47% 30.21 in 10.0 mi WSW 6.9 mph - N/A   Clear
9:35 PM 56.5 °F - 36.0 °F 46% 30.21 in 10.0 mi West 6.9 mph - N/A   Clear
9:55 PM 56.3 °F - 35.8 °F 46% 30.21 in 10.0 mi West 8.1 mph - N/A   Clear
10:15 PM 55.4 °F - 35.8 °F 48% 30.21 in 10.0 mi West 8.1 mph - N/A   Clear
10:35 PM 55.0 °F - 35.6 °F 48% 30.21 in 10.0 mi West 6.9 mph - N/A   Clear
10:55 PM 55.6 °F - 35.4 °F 47% 30.21 in 10.0 mi West 6.9 mph - N/A   Clear
11:15 PM 54.9 °F - 34.9 °F 47% 30.21 in 10.0 mi West 4.6 mph - N/A   Clear
11:35 PM 48.7 °F - 34.9 °F 59% 30.23 in 10.0 mi NNW 6.9 mph - N/A   Clear
11:55 PM 48.2 °F - 35.4 °F 61% 30.22 in 10.0 mi NW 4.6 mph - N/A   Clear